Location: Unspecified
(0.0000°N, 1.0000°E)
Time: 00:42:10
(UTC+01:00)

X-37B - Pass Details

Date: 28 September 2020
Orbit: 382 x 392 km, 45.0° (Epoch: 15 October)

Event Time Altitude Azimuth Distance (km) Brightness Sun altitude
Rises 06:56:58 0° 343° (NNW) 2,238 4.2 -12.4°
Reaches altitude 10° 06:59:34 10° 6° (N) 1,391 3.4 -11.8°
Maximum altitude 07:01:36 16° 47° (NE) 1,090 3.5 -11.2°
Drops below altitude 10° 07:03:40 10° 88° (E) 1,399 5.0 -10.7°
Sets 07:06:16 0° 111° (ESE) 2,258 6.0 -10.1°
